Oceana NAS, VA

11:29 PM EDT on May 26, 2017 (GMT -0400)
Oceana Naval Air Station

Weather History for KNTU - July, 2013

Change the Weather History Date:

Sunday, July 21, 2013

  Actual Average Record
Temperature  
Mean Temperature 83 °F -  
Max Temperature 91 °F 83 °F 96 °F (2015)
Min Temperature 75 °F 68 °F 62 °F (1996)
Cooling Degree Days 18    
Growing Degree Days 33 (Base 50)    
Moisture  
Dew Point 73 °F    
Average Humidity 70    
Maximum Humidity 87    
Minimum Humidity 54    
Precipitation  
Precipitation 0.00 in - - ()
Sea Level Pressure  
Sea Level Pressure 29.94 in    
Wind  
Wind Speed 11 mph (SW)    
Max Wind Speed 14 mph    
Max Gust Speed 21 mph    
Visibility 10 miles    
Events Thunderstorm    
Averages and records for this station are not official NWS values.
T = Trace of Precipitation, MM = Missing Value Source: NWS Daily Summary

Daily Weather History Graph

Daily Weather History Graph

Search for Another Location

Airport or City:

Trip Planner

Search our weather history database for the weather conditions in past years. The results will help you decide how hot, cold, wet, or windy it might be!

Date:

Astronomy

Jul. 21, 2013 Rise Set
Actual Time 6:01 AM EDT 8:19 PM EDT
Civil Twilight 5:31 AM EDT 8:48 PM EDT
Nautical Twilight 4:55 AM EDT 9:24 PM EDT
Astronomical Twilight 4:15 AM EDT 10:04 PM EDT
Moon 7:16 PM EDT (7/21) 4:43 AM EDT (7/21)
Length of Visible Light 15h 17m
Length of Day
14h 18m
Waxing Gibbous, 98% of the Moon is Illuminated
Jul 21
Waxing Gibbous
Jul 22
Full
Jul 29
Last Quarter
Aug 6
New
Aug 14
First Quarter

Hourly Weather History & Observations

Time (EDT) Temp. Heat Index Dew Point Humidity Pressure Visibility Wind Dir Wind Speed Gust Speed Precip Events Conditions
12:56 AM 80.1 °F 83.8 °F 72.0 °F 76% 29.95 in 10.0 mi SW 12.7 mph - N/A   Mostly Cloudy
1:56 AM 79.0 °F - 72.0 °F 79% 29.96 in 10.0 mi SW 12.7 mph - N/A   Clear
2:56 AM 78.1 °F - 71.1 °F 79% 29.95 in 10.0 mi SW 12.7 mph - N/A   Partly Cloudy
3:56 AM 78.1 °F - 71.1 °F 79% 29.95 in 10.0 mi SW 12.7 mph - N/A   Partly Cloudy
4:56 AM 77.0 °F - 71.1 °F 82% 29.96 in 10.0 mi SW 12.7 mph - N/A   Partly Cloudy
5:56 AM 75.9 °F - 71.1 °F 85% 29.96 in 10.0 mi SW 11.5 mph - N/A   Scattered Clouds
6:56 AM 75.9 °F - 72.0 °F 87% 29.96 in 10.0 mi SW 12.7 mph - N/A   Partly Cloudy
7:56 AM 78.1 °F - 72.0 °F 81% 29.96 in 10.0 mi SW 12.7 mph - N/A   Scattered Clouds
8:56 AM 81.0 °F 85.8 °F 73.0 °F 77% 29.97 in 10.0 mi WSW 11.5 mph - N/A   Scattered Clouds
9:56 AM 84.0 °F 91.2 °F 73.9 °F 72% 29.96 in 10.0 mi SW 11.5 mph - N/A   Scattered Clouds
10:56 AM 86.0 °F 95.1 °F 75.0 °F 70% 29.96 in 10.0 mi SW 10.4 mph - N/A   Scattered Clouds
11:56 AM 87.1 °F 95.4 °F 73.9 °F 65% 29.96 in 10.0 mi South 13.8 mph 20.7 mph N/A   Mostly Cloudy
12:56 PM 90.0 °F 99.0 °F 73.9 °F 59% 29.96 in 10.0 mi South 9.2 mph 19.6 mph N/A   Mostly Cloudy
1:56 PM 91.0 °F 101.6 °F 75.0 °F 59% 29.95 in 10.0 mi SW 12.7 mph - N/A   Mostly Cloudy
2:56 PM 90.0 °F 99.0 °F 73.9 °F 59% 29.93 in 10.0 mi SSW 10.4 mph - N/A   Mostly Cloudy
3:18 PM 89.6 °F 98.2 °F 73.4 °F 59% 29.92 in 10.0 mi South 13.8 mph - N/A Thunderstorm Thunderstorm
3:56 PM 89.1 °F 97.0 °F 73.0 °F 59% 29.92 in 10.0 mi SW 11.5 mph - N/A Thunderstorm Thunderstorm
4:56 PM 90.0 °F 96.4 °F 71.1 °F 54% 29.90 in 10.0 mi SW 11.5 mph - N/A Thunderstorm Thunderstorm
5:17 PM 89.6 °F 96.2 °F 71.6 °F 55% 29.88 in 10.0 mi SW 13.8 mph - N/A   Mostly Cloudy
5:56 PM 90.0 °F 96.4 °F 71.1 °F 54% 29.88 in 10.0 mi South 10.4 mph - N/A   Scattered Clouds
6:56 PM 87.1 °F 93.6 °F 72.0 °F 61% 29.91 in 10.0 mi WSW 10.4 mph - N/A   Mostly Cloudy
7:56 PM 86.0 °F 91.5 °F 71.1 °F 61% 29.94 in 10.0 mi SW 9.2 mph - N/A   Mostly Cloudy
8:56 PM 82.9 °F 88.8 °F 73.0 °F 72% 29.93 in 10.0 mi Calm Calm - N/A   Mostly Cloudy
9:56 PM 80.1 °F 84.5 °F 73.9 °F 81% 29.94 in 10.0 mi NE 3.5 mph - N/A   Mostly Cloudy
10:56 PM 80.1 °F 84.5 °F 73.9 °F 81% 29.95 in 10.0 mi Calm Calm - N/A   Overcast
11:56 PM 81.0 °F 86.7 °F 75.0 °F 82% 29.94 in 10.0 mi SSW 10.4 mph - N/A   Mostly Cloudy